AirNav   Pilot Hours Calculator
 
 413 users online  

KPCM Plant City Airport
Plant City, Florida, USA

GOING TO PLANT CITY?


FAA INFORMATION EFFECTIVE 30 DECEMBER 2021

Location

FAA Identifier: PCM
Lat/Long: 28-00-00.6000N 082-09-47.9000W
28-00.010000N 082-09.798333W
28.0001667,-82.1633056
(estimated)
Elevation: 152.7 ft. / 46.5 m (surveyed)
Variation: 05W (2010)
From city: 2 miles SW of PLANT CITY, FL
Time zone: UTC -5 (UTC -4 during Daylight Saving Time)
Zip code: 33567

Airport Operations

Airport use: Open to the public
Activation date: 03/1948
Control tower: no
ARTCC: MIAMI CENTER
FSS: SAINT PETERSBURG FLIGHT SERVICE STATION
NOTAMs facility: PCM (NOTAM-D service available)
Attendance: 0700-1900
Wind indicator: lighted
Segmented circle: yes
Lights: ACTVT REIL RWY 10 & 28; PAPI RWY 10 & 28; MIRL RWY 10/28 - CTAF.
Beacon: white-green (lighted land airport)
Operates sunset to sunrise.

Airport Communications

CTAF/UNICOM: 123.05
WX AWOS-3: 120.025 (813-764-8259)
TAMPA APPROACH: 120.65 119.9
TAMPA DEPARTURE: 120.65 119.9
WX AWOS-3PT at LAL (8 nm E): 118.025 (863-834-2030)
WX AWOS-3 at VDF (10 nm W): 121.125 (813-630-0924)
WX AWOS-3PT at ZPH (14 nm N): 118.975 (813-780-0031)
WX AWOS-3 at TPF (16 nm W): 118.925 (813-251-6824)
WX ASOS at TPA (20 nm W): 126.45 (813-873-7228)

Nearby radio navigation aids

VOR radial/distance  VOR name  Freq  Var
LALr275/8.0LAKELAND VORTAC116.0001E
PIEr084/28.2ST PETERSBURG VORTAC116.4005W

Airport Services

Fuel available: 100LL JET-A
Parking: hangars and tiedowns
Airframe service: MAJOR
Powerplant service: MAJOR
Bottled oxygen: NONE
Bulk oxygen: NONE

Runway Information

Runway 10/28

Dimensions: 3950 x 75 ft. / 1204 x 23 m
Surface: asphalt, in excellent condition
Weight bearing capacity: 
PCN 7 /F/C/X/T
Single wheel: 21.0
Runway edge lights: medium intensity
RUNWAY 10  RUNWAY 28
Latitude: 28-00.033208N27-59.985390N
Longitude: 082-10.165047W082-09.432610W
Elevation: 151.5 ft.137.9 ft.
Traffic pattern: leftleft
Runway heading: 099 magnetic, 094 true279 magnetic, 274 true
Displaced threshold: 200 ft.no
Markings: nonprecision, in good conditionnonprecision, in good condition
Visual slope indicator: 2-light PAPI on left (3.00 degrees glide path)2-light PAPI on left (3.00 degrees glide path)
Runway end identifier lights: yesyes
Touchdown point: yes, no lightsyes, no lights
Obstructions: 15 ft. road, 305 ft. from runway, 250 ft. right of centerline, 7:1 slope to clear
RWY 10 APCH RATIO 31:1 TO DSPLCD THR.
40 ft. trees, 1090 ft. from runway, 275 ft. left of centerline, 22:1 slope to clear

Airport Ownership and Management from official FAA records

Ownership: Publicly-owned
Owner: HILLSBOROUGH COUNTY AVIATION AUTH
P.O. BOX 22287
TAMPA, FL 33622
Phone (813) 870-8711
Manager: BRETT FAY
4007 AIRPORT RD
PLANT CITY, FL 33622
Phone (813) 870-8735

Airport Operational Statistics

Aircraft based on the field: 76
Single engine airplanes: 57
Multi engine airplanes: 13
Jet airplanes: 1
Helicopters: 4
Gliders airplanes: 1
    
Aircraft operations: avg 131/day *
77% local general aviation
23% transient general aviation
<1% air taxi
<1% military
* for 12-month period ending 12 December 2017

Additional Remarks

A30A-10 NOISE ABATEMENT PROC IN EFCT FOR DEP; NO TURNS BLW 500 FT AGL UNLESS DIRECTED BY ATC.
NMRS 1099 FT & 1549 FT MSL TWRS 12 NM SSW.
GCO AVBL ON FREQ 121.725 TAMPA CLNC DEL, FOR PCM.
FOR CD IF UNA VIA GCO CTC TAMPA APCH AT 813-878-2528 OR 813-371-7745.
VFR ACFT ARR/DEP PLANT CITY ARPT, EXER CTN DUE TO SML AND HVY TBJT ACFT TRSNG ARPT TFC AREA 1700 FT AND ABV ON APCH TO LAKELAND INTL 6.5 NM EAST.

Instrument Procedures

NOTE: All procedures below are presented as PDF files. If you need a reader for these files, you should download the free Adobe Reader.

NOT FOR NAVIGATION. Please procure official charts for flight.
FAA instrument procedures published for use from 30 December 2021 at 0901Z to 27 January 2022 at 0900Z.

 
IAPs - Instrument Approach Procedures
RNAV (GPS) RWY 10   download (244KB)
RNAV (GPS) RWY 28   download (237KB)
VOR RWY 28   download (190KB)
NOTE: Special Alternate Minimums apply   download
NOTE: Special Take-Off Minimums/Departure Procedures apply   download (162KB)

Other nearby airports with instrument procedures:

KLAL - Lakeland Linder International Airport (8 nm E)
KVDF - Tampa Executive Airport (10 nm W)
KZPH - Zephyrhills Municipal Airport (14 nm N)
KTPF - Peter O Knight Airport (16 nm W)
KTPA - Tampa International Airport (20 nm W)
 
Loc | Ops | Rwys | IFR | FBO | Links
Com | Nav | Svcs | Stats | Notes


 
Area around KPCM (Plant City Airport)
 
Road maps at: MapQuest Bing Google
 
Aerial photo
WARNING: Photo may not be current or correct
Aerial photo of KPCM (Plant City Airport)
Photo courtesy of PhotosFromTheAir.com
Photo taken 27-Feb-2012
looking west.

Do you have a better or more recent aerial photo of Plant City Airport that you would like to share? If so, please send us your photo.

 
Sectional chart

 
Airport distance calculator
Flying to Plant City Airport? Find the distance to fly.

From to KPCM

Sunrise and sunset
Times for 17-Jan-2022
 Local
(UTC-5)
 Zulu
(UTC)
Morning civil twilight06:5711:57
Sunrise07:2212:22
Sunset17:5622:56
Evening civil twilight18:2123:21

Current date and time
Zulu (UTC)  17-Jan-2022 08:31:05
Local (UTC-5)  17-Jan-2022 03:31:05
 
METAR
KPCM 170815Z AUTO 10SM OVC044 17/09 A2991 RMK AO2
KLAL 
8nm E 
170815Z AUTO 29009KT 10SM OVC044 14/08 A2989 RMK AO2
KVDF 
10nm W 
170815Z AUTO 29006KT 10SM OVC042 16/08 A2991 RMK AO2
KZPH 
14nm N 
170815Z AUTO 29013KT 10SM BKN027 BKN033 OVC042 14/09 A2990 RMK A02 T01420091
KTPF 
16nm W 
170815Z AUTO 31008KT 275V345 10SM BKN038 OVC044 17/10 A2991 RMK AO2
KTPA 
20nm W 
170753Z 30011G18KT 10SM OVC043 17/08 A2990 RMK AO2 SLP123 T01670078
TAF
KLAL 
8nm E 
170532Z 1706/1806 27012G17KT P6SM SCT020 BKN040 FM171500 31011G18KT P6SM BKN040 FM172100 29010G17KT P6SM SCT050 SCT250 FM180100 30006KT P6SM FEW050 AMD NOT SKED TIL 171100
KTPA 
20nm W 
170532Z 1706/1812 29015G25KT P6SM SCT020 BKN050 FM171500 30015G22KT P6SM BKN045 FM171900 29013G23KT P6SM SCT040 FM180000 31011KT P6SM FEW040 FEW250 FM180600 33005KT P6SM FEW250
NOTAMs
Click for the latest NOTAMs
NOTAMs are issued by the DoD/FAA and will open in a separate window not controlled by AirNav.

 

 
 

FBO, Fuel Providers, and Aircraft Ground Support

  
 Business Name 
 
 Contact 
 
 Services / Description 
 
Fuel Prices
 
Comments
  
 Atlas Aviation
813-752-4710
[web site]
[email]

Like us on facebook
Aviation fuel, Aircraft parking (ramp or tiedown), Hangars, Hangar leasing / sales, Passenger terminal and lounge, Flight training, Aircraft rental, ...
 
Courtesy car  
 
More info about Atlas Aviation
Titan
100LL Jet A
FS $5.79 $5.29 
 Updated 12-Jan-2022
 
   2 read write
FS=Full service
Update Fuel Prices
 

Would you like to see your business listed on this page?

 If your business provides an interesting product or service to pilots, flight crews, aircraft, or users of the Plant City Airport, you should consider listing it here.  To start the listing process, click on the button below
 
Add a business
 

Other Pages about Plant City Airport

Update a link
 
Copyright © AirNav, LLC. All rights reserved. Privacy Policy  Contact